metlocid,date_time,avg_rh,std_rh,min_rh,max_rh,n_rh,n_comments
FRSM,12/1/10,59.06637081,12.83713386,30.6,97.9,1014,1
FRSM,1/1/11,69.39714382,19.00851385,25.6,100,2976,283
FRSM,2/1/11,69.65829615,16.10120298,33.2,100,2688,264
FRSM,3/1/11,59.77110218,18.4918427,20.1,100,2976,75
FRSM,4/1/11,59.97034725,20.65854602,17.4,100,2880,11
FRSM,5/1/11,66.52311828,15.50271204,20.2,100,2976,3
FRSM,6/1/11,64.55288199,15.69714563,15.9,100,2880,3
FRSM,7/1/11,61.63024195,18.30664132,19.9,100,2976,20
FRSM,8/1/11,56.63279567,21.80912119,13.6,100,2976,16
FRSM,9/1/11,46.35177082,20.92102177,14.4,95,2880,0
FRSM,10/1/11,59.66172711,20.23939624,14.1,100,2976,27
FRSM,11/1/11,51.70045142,17.79535444,18.3,100,2880,16
FRSM,12/1/11,64.40834627,17.12285909,29.8,100,1294,26
FRSM,1/1/12,64.70585252,9.718417641,38.2,86.04,434,0
FRSM,2/1/12,60.8603269,20.97192795,19.28,100,2784,274
FRSM,3/1/12,55.43731521,16.12636053,19.92,100,2976,4
FRSM,4/1/12,60.93877079,13.84268275,25.3,99.51,2880,0
FRSM,5/1/12,63.95609883,22.82304754,15.66,100,2976,8
FRSM,6/1/12,55.24947571,22.56108616,14.58,100,2880,2
FRSM,7/1/12,58.8965457,20.21667484,13.29,99.67,2976,0
FRSM,8/1/12,58.13005043,23.86279786,9.01,100,2976,1
FRSM,9/1/12,60.56373957,17.76182726,16.21,100,2880,6
FRSM,10/1/12,60.93091066,16.25185505,24.81,100,2976,5
FRSM,11/1/12,55.52287501,18.87995257,15.52,100,2880,90
FRSM,12/1/12,71.33351142,18.3751871,34.38,100,2976,343
FRSM,1/1/13,64.34355847,22.98213294,22.39,100,2976,256
FRSM,2/1/13,65.3303571,16.27837245,28.84,100,2688,75
FRSM,3/1/13,64.68728828,17.06839415,26.55,100,2976,12
FRSM,4/1/13,64.22399646,17.5840656,26.79,100,2880,1
FRSM,5/1/13,63.63680443,20.50175289,21.93,100,2976,20
FRSM,6/1/13,61.17842013,18.15501745,19.59,100,2880,45
FRSM,7/1/13,65.27114919,16.6998573,15.77,100,2976,28
FRSM,8/1/13,54.29302422,19.8011603,12.98,95.53,2976,0
FRSM,9/1/13,53.99069789,21.04908125,17.68,100,2880,3
FRSM,10/1/13,66.32048049,17.84091143,26.79,100,2976,30
FRSM,11/1/13,63.66825698,17.04768392,22.16,100,2880,20
FRSM,12/1/13,60.7970363,19.65018443,24.29,100,2976,240
FRSM,1/1/14,60.49532595,21.58730939,22.07,100,2976,271
FRSM,2/1/14,63.58025293,19.60991784,18.05,100,2688,163
FRSM,3/1/14,56.68288642,18.81503865,20.34,100,2976,7
FRSM,4/1/14,56.08302429,18.33874379,14.42,98.11,2880,0
FRSM,5/1/14,66.73658939,16.4991033,26.32,100,2976,7
FRSM,6/1/14,64.16406596,15.07304255,25.29,100,2880,1
FRSM,7/1/14,54.738797,18.27452828,13.94,99.94,2976,0
FRSM,8/1/14,67.14011761,19.44186763,15.04,100,2976,2
FRSM,9/1/14,62.33630904,15.90750008,20.6,100,2880,2
FRSM,10/1/14,72.23274535,20.52209292,23.54,100,2976,65
FRSM,11/1/14,60.64140972,19.0865703,29.17,100,2880,187
FRSM,12/1/14,69.38269243,18.33674781,27.57,100,2975,281
FRSM,1/1/15,69.49593747,19.84194686,30.2,100,2976,308
FRSM,2/1/15,66.26268231,15.86829422,26.11,100,2688,104
FRSM,3/1/15,54.20072242,17.07147622,16.12,99.66,2976,0
FRSM,4/1/15,66.11756253,19.52014865,22.31,100,2880,42
FRSM,5/1/15,52.68851816,16.86778255,15.63,98.23,2976,0
FRSM,6/1/15,61.39539929,17.94930235,17.2,97.22,2880,0
FRSM,7/1/15,61.21821238,18.90640691,15.84,99.69,2976,0
FRSM,8/1/15,56.66993959,23.05518897,12.11,99.47,2976,0
FRSM,9/1/15,53.54110418,18.79945238,12.47,96.41,2880,0
FRSM,10/1/15,64.02001005,17.4034443,18.09,100,2976,16
FRSM,11/1/15,59.92424654,16.04876442,27.48,100,2880,19
FRSM,12/1/15,63.99361679,23.14504547,14.99,100,2975,415
FRSM,1/1/16,62.75874662,20.90476335,17.69,100,2976,145
FRSM,2/1/16,59.94613146,21.35890311,22.3,100,2784,255
FRSM,3/1/16,62.73762434,18.9134431,18.58,100,2976,79
FRSM,4/1/16,71.34802429,13.55755156,30,100,2880,97
FRSM,5/1/16,56.30487912,19.5152969,14.96,100,2976,1
FRSM,6/1/16,69.90356596,18.62035923,14.3,100,2880,57
FRSM,7/1/16,43.13582327,17.59676244,15.17,100,2976,1
FRSM,8/1/16,59.92270496,22.65294926,10.49,100,2976,150
FRSM,9/1/16,57.06463193,21.30095976,15.76,100,2880,21
FRSM,10/1/16,61.06125328,20.62369799,19.08,100,2976,61
FRSM,11/1/16,52.95898958,22.80976284,9.37,100,2880,159
FRSM,12/1/16,63.44512606,18.07199337,22.1,100,2975,114
FRSM,1/1/17,58.68181451,19.79049001,22.23,100,2976,144
FRSM,2/1/17,48.87607519,15.75626028,19.46,100,2688,19
FRSM,3/1/17,66.95785614,22.84202126,21.32,100,2976,350
FRSM,4/1/17,63.52613196,19.27859894,16.48,100,2880,11
FRSM,5/1/17,68.62065188,18.01967582,16.9,100,2976,7
FRSM,6/1/17,63.78746876,17.98056239,18.9,100,2880,6
FRSM,7/1/17,59.39481184,20.76489601,15.7,100,2976,3
FRSM,8/1/17,63.13957659,22.11873831,15.22,100,2976,228
FRSM,9/1/17,43.80080904,20.45210346,12.42,99.53,2880,0
FRSM,10/1/17,61.07831315,19.57006523,15.41,100,2976,58
FRSM,11/1/17,59.9465914,18.72865286,19.31,100,2878,96
FRSM,12/1/17,73.84712371,17.31106626,27.41,100,2976,319
FRSM,1/1/18,70.75377354,17.07979399,29.79,100,2976,330
FRSM,2/1/18,63.2665848,17.73815754,29.95,100,2688,116
FRSM,3/1/18,67.22757733,20.85968837,19.94,100,2976,328
FRSM,4/1/18,59.88667359,15.49675262,14.32,100,2880,16
FRSM,5/1/18,67.10363576,16.4514522,24.68,100,2976,6
FRSM,6/1/18,75.4810139,16.50180179,33.73,100,2880,297
FRSM,7/1/18,54.9133434,21.55892292,13.85,100,2976,66
FRSM,8/1/18,55.4000773,20.5549299,12.13,100,2976,1
FRSM,9/1/18,58.49286805,22.26756085,11.31,100,2880,3
FRSM,10/1/18,67.20667678,16.34962748,22.92,100,2976,38
FRSM,11/1/18,64.89384726,21.27529934,22.37,100,2880,345
FRSM,12/1/18,66.23459346,16.0612587,31.09,100,2976,105
FRSM,1/1/19,69.54149531,23.87033839,20.19,100,2976,526
FRSM,2/1/19,62.95760419,18.63250404,21.18,100,2688,55
FRSM,3/1/19,57.67627353,20.92061967,19.22,100,2976,102
FRSM,4/1/19,63.06361111,15.06646747,26.87,100,2880,1
FRSM,5/1/19,65.97182465,19.53513868,15.89,100,2976,205
FRSM,6/1/19,64.43775,17.14200825,19.25,100,2880,31
FRSM,7/1/19,53.43527889,22.24535091,15.31,100,2976,27
FRSM,8/1/19,51.48907596,22.46584311,9.38,98.06,2976,0
FRSM,9/1/19,57.41773959,18.51756747,16.17,99.89,2880,0
FRSM,10/1/19,59.83867273,19.99861195,18.73,100,2976,70
FRSM,11/1/19,55.23122216,16.14610894,18.01,100,2880,65
FRSM,12/1/19,71.914633,19.88564233,33.42,100,2970,797
FRSM,1/1/20,62.24633734,18.09249739,16.38,100,2976,2976
FRSM,2/1/20,65.1906573,17.4444085,23.36,100,2784,2784
FRSM,3/1/20,62.07550398,20.45078932,20.94,100,2976,2976
FRSM,4/1/20,54.55045488,16.28057449,17.42,98.57,2880,2880
FRSM,5/1/20,61.22497986,15.97186548,21.18,99.43,2976,2976
FRSM,6/1/20,68.60596535,16.39944113,20.84,100,2880,2880
FRSM,7/1/20,55.06424733,19.11015653,20.18,99.51,2976,2976
FRSM,8/1/20,73.85864251,15.6835324,31.49,100,2976,2976
FRSM,9/1/20,54.33543751,21.51867544,10.46,100,2880,2880
FRSM,10/1/20,56.75980846,16.30627931,14.18,99.96,2976,2976
FRSM,11/1/20,55.21424998,15.6008506,25.12,100,2880,2880
FRSM,12/1/20,61.1688004,19.44096046,21.32,100,2976,2976
FRSM,1/1/21,60.8352756,18.57183187,16.9,100,2976,2976
FRSM,2/1/21,64.7180394,21.61074601,15.05,100,2688,2688
FRSM,3/1/21,68.88687158,21.12325917,26.82,100,2976,2976
FRSM,4/1/21,60.98918055,17.96043486,19.76,100,2880,2880
FRSM,5/1/21,61.04317205,15.27058171,24.39,98.75,2976,2976
FRSM,6/1/21,55.47869444,15.64522835,18.33,96.11,2880,2880
FRSM,7/1/21,59.10818543,22.41793899,11.24,100,2976,2976
FRSM,8/1/21,43.99381384,20.91955464,13.71,98.84,2976,2976
FRSM,9/1/21,64.05218752,20.37071575,16.69,100,2880,2880
FRSM,10/1/21,48.10531584,16.62892986,15.82,94.79,2976,2976
FRSM,11/1/21,63.89714235,18.65191327,25.74,100,2880,2880
FRSM,12/1/21,57.22499158,18.16257144,20.51,100,2973,2973
FRSM,1/1/22,68.50487228,16.22299682,27.31,100,2976,2976
FRSM,2/1/22,67.31457965,17.58625359,23.41,100,2688,2688
FRSM,3/1/22,54.26918684,17.3780052,11.79,99.13,2976,2976
FRSM,4/1/22,62.09074307,20.42199229,24.31,100,2880,2880
FRSM,5/1/22,69.3023118,16.36820976,16.79,100,2976,2976
FRSM,6/1/22,61.33869792,20.34427658,16.93,100,2880,2880
FRSM,7/1/22,58.15085018,19.73242059,9.79,100,2976,2976
FRSM,8/1/22,59.61395498,18.73499289,15.35,100,2976,2976
FRSM,9/1/22,63.26537496,16.3133204,16.2,100,2880,2880
FRSM,10/1/22,56.27993617,18.81145853,16.15,100,2976,2976
FRSM,11/1/22,63.27038543,24.42980112,13.32,100,2880,2880
FRSM,12/1/22,54.46387017,15.86793618,18.13,100,1757,1757